    Orbital elements:
    2014 EL45                                                Earth MOID = 0.1205 AU
    Epoch 2019 Apr. 27.0 TT = JDT 2458600.5                 MPC
    M  16.98567              (2000.0)            P               Q
    n   0.20398088     Peri.   22.86846     -0.94741662     +0.31672730
    a   2.8580934      Node   174.89591     -0.30891779     -0.94247301
    e   0.6196805      Incl.   30.88550     +0.08349583     +0.10690386
    P   4.83           H   19.9           G   0.15           U   0
    Residuals in seconds of arc
    140309 C41  0.3+  0.8-    140312 C47  0.1-  0.3-    140321 H45  0.2-  0.1-
    140309 C41  0.6+  0.2-    140313 291  0.0   0.1+    140321 H45  0.1+  0.2+
    140309 C41  0.4+  0.4-    140313 291  0.2+  0.2+    140321 H45  0.2-  0.0
    140310 703  0.1+  0.1+    140313 291  0.0   0.1+    140321 H45  0.2+  0.3+
    140310 703  0.1-  0.1+    140313 448  0.0   0.0     140321 H45  0.3-  0.4+
    140310 703  0.2+  0.1-    140313 448  0.1-  0.0     140321 H45  0.4+  0.1-
    140310 703  0.6+  0.4+    140313 448  0.0   0.1-    140321 H45  0.0   0.0
    140310 703  0.1-  0.0     140313 448  0.2+  0.1-    140321 718  0.0   0.1-
    140310 703  0.4+  0.2-    140313 448  0.2-  0.2-    140321 718  0.3+  0.1-
    140310 703  0.1-  0.4+    140313 A48  0.3-  0.4-    140321 718  0.3-  0.1+
    140310 H06  0.5-  0.1-    140313 A48  0.9-  0.0     140321 H21  0.1-  0.0
    140310 H06  0.4-  0.2+    140313 A48  0.4-  0.0     140321 H21  0.2-  0.2-
    140310 H06  0.1+  0.5+    140313 A48  0.1+  0.5-    140321 H21  0.1-  0.3-
    140310 H06  0.1-  0.3+    140314 807  0.1-  0.3-    140321 H21  0.0   0.2-
    140310 703  0.3+  0.5+    140314 807  0.1-  0.1-    140321 G96  0.1+  0.1+
    140310 291  0.0   0.1+    140314 807  0.2-  0.4-    140321 H21  0.2-  0.2-
    140310 291  0.1+  0.0     140314 807  0.1-  0.1-    140321 G96  0.2+  0.1+
    140310 291  0.1+  0.1-    140314 807  0.1-  0.3-    140321 G96  0.1+  0.0
    140310 E23  0.2-  0.5-    140314 807  0.1-  0.2-    140321 G96  0.2+  0.0
    140310 E23  0.0   0.4-    140314 926  0.1-  0.2+    140321 703  0.2+  0.1+
    140310 E23  0.1+  0.2-    140314 926  0.1+  0.1+    140321 703  0.1-  0.4-
    140310 E23  0.1+  0.0     140314 926  0.1+  0.3+    140321 703  0.2-  0.4+
    140310 E23  0.0   0.1-    140314 926  0.5+  0.1+    140323 718  0.8-  0.2-
    140310 Q62  0.7-  0.2-    140314 926  0.3+  0.1+    140323 718  0.5-  0.4+
    140310 Q62  0.3-  0.3-    140314 926  0.3+  0.1+    140323 718  0.7-  0.2-
    140310 Q62  0.7-  0.5-    140314 461  0.1+  0.2+    140323 718  0.8-  0.5-
    140310 Q62  0.5-  0.1-    140314 461  0.0   0.2+    140324 718  0.7-  0.4+
    140310 J37 (1.9-  0.0 )   140314 461  0.1+  0.2+    140324 718  0.6-  0.6+
    140310 J37  0.2+  0.3-    140314 461  0.1+  0.1+    140324 718  0.5-  0.2+
    140310 J37  0.2-  0.2-    140314 461  0.1+  0.2+    140325 089  0.1-  0.1+
    140310 J37  0.1-  0.1-    140314 461  0.3+  0.3+    140325 089  0.3+  0.3+
    140310 I93  0.2+  0.2+    140314 461  0.2+  0.3+    140325 089  0.4+  0.1+
    140310 J08  0.3+  0.8+    140314 461  0.3+  0.0     140325 089  0.2+  0.1+
    140310 I93  0.2-  0.3+    140314 461  0.3+  0.2+    140325 089  0.1+  0.1+
    140310 J08  0.2+  0.9+    140314 461  0.4+  0.1+    140325 089  0.1+  0.3+
    140310 J08  0.1-  0.2-    140314 461  0.1-  0.1+    140325 089  0.2+  0.5+
    140310 I93  0.2-  0.0     140314 461  0.1+  0.2+    140325 089  0.3+  0.3+
    140311 X38  0.4+  0.3+    140314 C47  0.1+  0.1-    140325 089  0.1+  0.4+
    140311 X38  0.3+  0.2-    140314 461  0.1+  0.2+    140325 089  0.2+  0.3+
    140311 X38  0.1-  0.0     140314 461  0.2+  0.1+    140325 718  0.6-  0.2-
    140311 807  0.3-  0.0     140314 461  0.1+  0.2+    140325 718  0.7-  0.0
    140311 807  0.2-  0.1-    140314 C47  0.1+  0.1-    140325 718  0.1-  0.1-
    140311 807  0.1-  0.0     140314 C47  0.6-  0.2-    140325 718  0.5-  0.3-
    140311 807  0.3-  0.2-    140314 C47  0.0   0.2-    140326 A17  0.1-  0.0
    140311 807  0.2-  0.1-    140315 H21  0.0   0.2-    140326 A17  0.1-  0.1+
    140311 807  0.2-  0.1-    140315 H21  0.1-  0.3-    140326 A17  0.2-  0.3+
    140311 G48  0.2-  0.1+    140315 H21  0.1+  0.2-    140326 H21  0.1+  0.1+
    140311 G48  0.0   0.1-    140315 H21  0.2-  0.1-    140326 H21  0.0   0.1-
    140311 G48  0.4+  0.1-    140315 H21  0.0   0.0     140326 H21  0.2+  0.0
    140311 G48  0.7+  0.2-    140315 H21  0.3-  0.1-    140326 H45  0.2-  0.1+
    140311 Y00  0.7-  0.5+    140315 H21  0.1-  0.2-    140326 H45  0.1-  0.3-
    140311 Y00  0.6-  1.1+    140315 718  0.6-  0.3-    140326 H45  0.1-  0.0
    140311 Y00  0.3-  1.0+    140315 718  0.3-  0.1-    140326 H45  0.0   0.0
    140311 H36  0.1+  0.1+    140315 718  0.7-  0.1+    140326 H45  0.3+  0.5+
    140311 H36  0.2+  0.3-    140315 300  0.4+  0.5+    140326 H45  0.3-  0.3-
    140311 H36  0.1+  0.4+    140315 300  0.4+  0.2+    140326 H45  0.2-  0.2-
    140311 H36  0.3+  0.2-    140315 300  0.7+  0.6+    140326 H45  0.4+  0.2-
    140311 850  0.2+  0.5-    140316 807  0.2-  0.2-    140328 Z81  0.1+  0.1-
    140311 850 (0.1-  1.5-)   140316 807  0.1+  0.3-    140328 Z81  0.0   0.2+
    140311 850  0.2+  0.0     140316 807  0.6-  0.0     140328 Z81  0.1+  0.2-
    140311 850  0.0   0.0     140316 807  0.2-  0.1+    140328 Z81  0.4+  0.2-
    140311 850  0.1-  0.2-    140316 807  0.2-  0.5-    140328 718  0.4+  0.5-
    140311 300  0.2+  0.2-    140316 807  0.1+  0.2-    140328 718  0.5+  0.0
    140311 300  0.5+  0.0     140316 718  0.6-  0.4-    140328 718  0.1+  0.8+
    140311 300  0.1+  0.1+    140316 718  0.3-  0.3-    140328 718  0.0   0.2+
    140311 300  0.2+  0.1-    140316 718  0.7-  0.3-    140328 K38  0.6+  0.1-
    140311 300  0.4+  0.0     140316 926  0.3+  0.2+    140328 K38  0.3+  0.2-
    140311 300  0.2-  0.0     140316 926  0.4+  0.3+    140329 K38  0.1+  0.2+
    140311 300  0.5+  0.2+    140316 926  0.3+  0.1+    140329 130  0.1+  0.6-
    140311 300  0.6+  0.2+    140316 926  0.2+  0.1+    140329 130  0.6+  0.0
    140311 Q62  1.4-  0.1-    140316 926  0.4+  0.1-    140329 130  0.2-  0.3-
    140311 Q62 (2.3-  0.1+)   140316 926  0.2+  0.2+    140329 130  0.2+  0.1-
    140311 Q62 (2.6+  0.1+)   140316 J37  0.3+  0.1+    140329 K38  0.2-  0.3-
    140311 Q62 (1.5-  1.1+)   140317 J37  0.8+  0.8+    140329 K38  0.6-  0.2+
    140311 K93  0.1+  0.3-    140317 J37  0.5+  0.2+    140331 C15  0.8+  0.6+
    140311 K93  0.1+  0.1+    140317 J37  1.1+  0.2+    140331 C15  0.4-  0.5-
    140311 K93  0.0   0.0     140317 926  0.6-  1.4-    140331 C15  0.0   0.3-
    140311 K93  0.0   0.0     140317 926  1.0+  1.0+    140401 H21  0.1+  0.3+
    140311 246  0.1+  0.1+    140317 926 (0.6-  1.6-)   140401 H21  0.1-  0.1+
    140311 A17  0.3-  0.5-    140317 Z81  0.2+  0.3-    140401 H21  0.1-  0.1+
    140311 246  0.1+  0.0     140317 Z81  0.1-  0.2-    140401 H21  0.1-  0.0
    140311 246  0.3+  0.1-    140317 Z81  0.1-  0.2-    140401 H21  0.1-  0.0
    140311 246  0.0   0.1+    140318 Z81  0.0   0.2-    140401 H21  0.0   0.1-
    140311 246  0.1+  0.0     140319 G40  0.3-  0.2-    140402 703  0.0   0.7+
    140311 246  0.3+  0.2-    140319 G40  0.1-  0.5-    140402 703  0.4+  0.0
    140311 246  0.0   0.0     140319 G40  0.3-  0.5-    140402 703  0.9+  0.9+
    140311 A17  0.1-  0.1+    140319 G40  0.1-  0.3-    140402 703  0.1-  0.1-
    140311 A17  0.2-  0.6-    140319 G40  0.3-  0.5-    140402 926 (1.6+  1.7+)
    140311 204  0.0   0.1-    140319 718  0.5-  0.2+    140402 926  1.1-  0.8-
    140311 204  0.0   0.1+    140319 718  0.3-  0.1-    140402 926  1.4-  0.3-
    140311 204  0.1+  0.5-    140319 718  0.7-  0.4-    140406 H21  0.1+  0.2-
    140311 204  0.0   0.1-    140319 718  0.5-  0.0     140406 H21  0.0   0.0
    140311 204  0.0   0.1-    140320 461  0.4+  0.1+    140406 H21  0.0   0.0
    140312 807  0.0   0.1-    140320 461  0.3+  0.3+    140406 H21  0.0   0.0
    140312 807  0.0   0.0     140320 461  0.2+  0.1+    140406 H21  0.1+  0.1+
    140312 807  0.1-  0.2-    140320 461  0.2+  0.5+    140406 K38  0.0   0.2+
    140312 807  0.2-  0.1+    140320 461  0.2+  0.2+    140407 K38  0.0   0.3+
    140312 Y00  0.6-  0.8+    140320 461  0.5+  0.6+    140408 K38  0.8+  0.4-
    140312 Y00  0.4-  0.3+    140320 461  0.2+  0.3+    140409 K38  0.5+  0.3+
    140312 Y00  0.7-  0.5+    140320 461  0.0   0.1+    140416 H21  0.1+  0.1+
    140312 807  0.2-  0.3-    140320 461  0.0   0.3+    140416 H21  0.1-  0.3+
    140312 807  0.1-  0.1-    140320 461  0.1+  0.3+    140416 H21  0.5-  0.1-
    140312 926  0.3+  0.0     140320 461  0.2+  0.3+    140419 H21  0.0   0.4+
    140312 926  0.2+  0.1-    140320 461  0.1-  0.0     140419 H21  0.2-  0.2+
    140312 926  0.5+  0.1+    140320 461  0.2+  0.3+    140419 H21  0.1-  0.2-
    140312 718  0.3-  0.1-    140320 461  0.2+  0.4+    140419 H21  0.1+  0.0
    140312 718  0.4-  0.5-    140320 461  0.2+  0.3+    140602 F51  0.1+  0.0
    140312 718  0.6-  0.3-    140320 461  0.1-  0.5+    140602 F51  0.1-  0.1+
    140312 595  0.0   0.5-    140320 H21  0.2+  0.1-    140602 F51  0.1+  0.0
    140312 595  0.0   0.5-    140320 H21  0.2+  0.2-    140602 F51  0.3+  0.0
    140312 595  0.1+  0.4-    140320 H21  0.0   0.2-    140626 H21  0.0   0.0
    140312 958  0.4+  0.7+    140320 H21  0.1+  0.2-    140626 H21  0.3+  0.0
    140312 958  0.2+  0.6+    140320 H21  0.2+  0.0     140626 H21  0.0   0.1+
    140312 958  0.5+  0.8+    140320 H21  0.2+  0.2-    140718 H21  0.2-  0.2-
    140312 958  0.2+  0.6+    140320 H21  0.2+  0.3-    140718 H21  0.3-  0.5-
    140312 958  0.3+  0.3+    140320 H21  0.2+  0.2-    140718 H21  0.1-  0.4-
    140312 C23  0.2+  0.1-    140320 H21  0.0   0.1-    140719 H21  0.6-  0.4-
    140312 C23  0.3+  0.1-    140320 H21  0.2-  0.6-    140719 H21  0.2-  0.1-
    140312 C23  0.1+  0.2-    140320 H21  0.4-  0.6-    140719 H21  0.6-  0.3-
    140312 C23  0.3-  0.0     140320 H21  0.1-  0.1-    190531 F51  0.1+  0.1-
    140312 C23  0.3-  0.3-    140320 H21  0.0   0.2-    190531 F51  0.0   0.0
    140312 C23  0.2+  0.4-    140321 Z81  0.0   0.3-    190531 F51  0.0   0.1-
    140312 C23  0.5+  0.4+    140321 Z81  0.0   0.0     190607 F51  0.1-  0.1+
    140312 C47  0.0   0.2+    140321 Z81  0.2-  0.2-    190607 F51  0.0   0.1+
    140312 C47  0.3+  0.1+    140321 Z81  0.1-  0.1-
    140312 C47  0.2-  0.0     140321 H45  0.2+  0.2-
    
